Theta_e
305 299 296 302 304 303 301 299 299 304 308 305 321 323 326 329 329 331 331 331 331 332 336 335 334 339 338 338 336 339 341 340 343 344 342 341 342 345 350 350 352 353 352 349
302 297 304 308 308 305 302 299 298 303 307 317 320 320 324 327 329 331 332 332 332 332 334 336 332 337 337 337 337 338 342 341 344 344 343 343 342 343 350 350 353 353 352 344
300 304 310 307 305 303 300 297 299 299 312 319 318 314 316 322 329 332 335 334 334 332 333 334 332 337 337 336 338 340 343 342 345 345 345 344 345 344 344 344 347 353 354 350
301 306 305 304 304 303 293 302 303 301 296 291 310 303 314 318 322 329 331 330 332 333 335 336 332 333 336 336 340 342 344 343 346 344 342 342 343 340 341 343 346 350 355 353
297 302 302 301 302 304 301 305 301 300 294 291 295 292 300 317 316 323 329 329 332 333 335 336 332 333 337 338 338 344 345 344 346 345 341 343 339 340 343 344 346 349 350 353
297 302 302 302 306 305 306 300 297 294 292 287 291 292 296 309 315 320 329 331 332 331 334 336 337 334 335 339 338 345 344 343 345 345 340 340 340 339 343 344 347 348 349 351
294 297 297 301 296 301 299 292 286 286 285 285 291 291 293 313 319 320 325 330 332 331 333 335 334 333 334 336 338 342 344 342 343 344 345 340 342 339 342 343 347 347 348 350
287 287 295 300 295 294 296 292 287 282 283 286 293 288 295 309 322 323 324 329 332 330 331 333 334 333 335 336 338 340 343 342 343 344 344 345 342 342 342 345 347 348 350 352
286 288 299 300 299 297 296 292 295 288 286 286 290 295 301 303 313 322 321 325 329 332 333 334 337 335 336 337 337 340 342 342 342 342 342 343 347 342 342 345 347 349 349 350
290 285 292 299 299 298 293 296 290 287 283 282 288 290 293 299 307 316 320 322 326 333 333 335 337 339 339 338 339 340 342 342 344 343 342 342 343 347 341 344 344 348 347 348
289 287 289 294 290 289 291 289 288 288 288 284 283 288 299 303 310 313 319 324 325 331 333 335 338 339 339 338 339 341 341 341 344 345 343 341 341 344 344 342 344 345 345 347
291 285 283 286 294 297 293 289 286 283 283 287 288 290 304 308 311 318 322 322 326 331 334 335 337 338 338 336 336 340 342 342 342 346 345 342 340 342 345 345 342 344 345 348
292 284 280 284 287 291 290 291 288 287 284 283 284 288 302 308 314 319 321 324 327 328 330 331 332 334 336 337 335 337 341 344 344 345 345 345 341 340 342 346 345 340 345 345
296 284 282 279 283 287 287 290 291 286 281 282 284 289 294 299 306 312 320 324 325 327 330 331 329 332 332 332 334 334 340 345 345 345 345 345 346 342 339 344 345 344 341 345
290 282 284 285 290 291 291 290 291 287 287 283 288 288 292 297 300 311 317 323 325 328 331 331 332 332 333 335 336 341 341 343 347 346 346 345 348 348 344 340 344 343 345 345
290 284 286 286 291 290 288 291 292 291 291 290 291 290 304 307 313 316 317 321 323 326 326 327 332 337 336 337 339 341 341 342 347 346 346 348 347 349 349 344 341 342 341 347
286 285 283 278 288 287 282 287 290 291 292 294 292 296 303 304 308 308 311 317 320 323 325 326 328 330 335 339 340 338 338 341 342 346 348 349 349 348 349 350 346 343 341 340
285 283 283 279 283 276 286 292 294 293 297 299 299 300 302 303 306 308 311 314 315 319 322 325 327 330 336 337 337 339 340 343 342 343 347 351 351 350 350 350 350 348 346 341
287 284 280 278 278 284 288 291 290 292 293 298 297 299 301 303 307 305 309 312 312 314 319 324 326 327 331 329 330 336 341 341 339 337 338 344 353 352 351 349 349 350 349 347
289 288 284 281 276 276 286 296 300 297 287 299 299 298 298 300 295 299 307 311 312 314 319 320 323 323 323 323 326 330 334 336 336 338 337 343 346 351 351 351 351 351 351 350
282 284 280 280 280 285 293 295 299 284 285 297 298 298 297 295 299 303 307 309 312 315 317 318 319 319 321 322 323 323 326 328 329 333 334 337 342 350 352 352 352 352 351 350
283 283 282 280 276 278 294 296 289 293 294 295 296 297 297 299 303 305 307 308 311 313 316 317 316 318 319 320 319 318 319 323 327 330 331 334 339 351 351 352 352 352 350 350
283 285 279 286 288 293 296 295 296 295 292 293 295 297 299 298 301 303 305 305 308 312 314 315 315 315 316 317 316 315 318 321 323 326 329 332 337 348 351 350 349 350 350 349
286 291 286 283 289 291 293 295 294 296 295 295 296 297 298 298 301 301 303 305 305 309 312 314 314 313 313 314 315 315 317 319 320 323 326 330 336 345 350 352 350 350 349 348
285 288 285 287 288 291 293 294 294 296 296 297 298 298 300 300 301 301 301 303 304 306 310 313 310 310 310 311 312 313 316 318 318 320 323 327 337 344 352 350 350 351 352 348
291 286 283 280 287 291 292 296 297 296 295 296 295 296 300 301 301 302 301 303 304 305 311 313 312 310 307 308 309 312 314 316 317 318 320 324 328 334 352 351 338 311 315 317
Wind_Speed
4 4 4 8 6 6 4 3 9 17 13 4 16 18 22 17 11 13 13 12 18 15 8 8 15 19 19 17 14 13 10 7 6 3 3 3 3 3 3 4 6 6 6 5
4 5 9 6 6 6 7 7 12 13 4 6 6 8 12 15 14 18 21 18 17 13 13 7 17 17 19 18 15 12 13 10 6 5 3 3 4 2 3 4 5 5 6 5
7 10 8 8 7 6 6 6 10 11 2 7 12 5 5 4 6 7 15 23 18 20 19 11 19 18 18 18 16 15 13 12 8 7 3 2 3 3 2 1 3 4 7 6
6 14 9 8 11 5 6 8 11 8 4 3 4 4 8 11 6 13 16 14 16 16 19 14 17 18 18 18 15 15 13 12 8 8 5 5 4 4 4 4 3 4 6 7
8 5 7 8 12 8 13 12 8 2 3 3 3 5 4 14 12 19 19 23 14 15 20 20 18 21 19 17 15 14 15 13 11 9 7 6 4 4 3 3 6 5 5 7
7 4 5 8 6 7 12 6 7 5 4 3 5 6 3 8 26 18 20 18 21 20 20 20 16 21 20 18 16 15 16 15 11 10 7 8 7 6 4 6 6 4 4 4
5 4 3 3 3 6 3 8 4 5 4 6 5 4 9 14 11 21 27 24 20 16 17 19 17 21 20 21 19 16 17 16 15 13 10 8 9 7 7 7 8 7 4 3
4 5 9 8 1 4 3 9 7 6 3 4 7 3 6 10 17 17 21 22 20 16 9 14 16 19 22 22 21 20 19 17 17 16 13 8 9 6 5 6 6 8 8 8
3 3 6 4 7 5 4 2 6 5 1 5 4 9 10 2 8 10 13 15 19 16 17 20 9 13 19 20 22 22 21 19 18 18 14 11 9 8 7 8 5 6 8 5
3 3 3 7 8 11 9 5 5 4 3 3 5 4 6 12 15 6 7 13 12 12 18 18 17 13 9 17 15 16 18 21 19 17 15 12 11 8 7 7 7 7 7 6
5 5 8 5 6 3 9 10 7 1 4 5 2 6 3 6 5 10 9 17 18 17 14 16 12 9 11 10 18 19 17 19 17 17 16 15 13 10 6 7 8 7 5 8
5 4 5 3 6 3 4 6 5 5 8 2 4 5 5 6 8 12 18 8 6 12 14 9 16 20 18 13 11 19 19 18 18 17 16 16 14 13 9 8 8 7 7 6
4 4 5 13 8 9 8 10 5 3 3 2 4 6 12 15 14 12 16 11 6 6 7 10 12 4 3 9 10 10 19 20 19 18 17 16 16 15 16 13 9 7 8 7
8 4 6 5 4 4 7 12 8 5 2 5 3 14 13 15 13 13 14 20 3 14 5 2 6 7 3 6 3 8 15 18 18 18 18 17 18 17 16 16 12 8 9 9
6 2 4 3 6 8 10 13 12 6 5 2 7 7 10 10 8 7 8 19 23 15 13 9 8 12 9 2 4 5 7 15 18 19 18 19 16 16 15 16 16 12 10 11
5 1 5 6 7 8 9 11 11 11 6 5 6 5 12 8 11 12 11 12 14 11 13 11 13 12 9 7 5 4 6 3 14 18 20 18 18 16 17 16 17 15 15 13
1 3 3 2 4 6 8 5 4 11 5 3 3 3 11 11 13 15 15 11 9 7 7 8 11 12 10 6 3 2 5 5 1 9 16 17 17 18 17 15 16 16 16 15
2 4 3 4 5 3 8 6 6 3 12 8 3 8 9 10 5 14 17 10 10 10 8 7 5 7 12 9 8 6 5 4 4 5 12 16 16 17 17 17 17 17 14 16
3 4 2 4 4 7 10 7 6 6 6 6 4 9 12 15 4 10 13 12 13 10 10 10 11 10 10 12 14 13 4 1 3 5 7 8 13 17 17 19 18 16 15 14
5 4 5 3 4 5 3 8 12 2 4 7 8 8 11 14 4 2 7 7 9 10 5 6 8 8 7 6 9 9 7 6 1 2 6 7 12 14 17 19 19 17 16 16
5 4 2 4 5 6 8 14 8 3 3 8 8 9 7 5 6 12 7 5 4 6 5 4 4 6 8 12 11 8 7 6 8 7 8 10 13 18 20 19 15 17 16 15
1 3 3 3 2 6 11 4 3 6 4 4 5 9 11 6 15 15 6 6 3 6 7 4 3 4 4 7 12 13 10 10 6 9 7 11 12 13 15 19 17 17 16 15
4 5 4 5 2 2 5 2 5 5 6 6 9 12 14 13 11 11 14 4 5 3 6 4 3 6 8 8 8 11 9 12 13 8 9 11 11 11 16 17 17 13 15 13
2 3 3 5 1 1 5 3 3 8 11 12 12 13 14 14 13 11 7 11 5 5 5 7 4 4 8 8 7 11 12 13 10 10 10 9 9 12 13 13 13 13 13 13
5 3 4 5 9 9 6 4 6 11 12 14 12 13 12 13 12 9 8 8 8 5 5 4 3 4 6 9 10 10 11 14 15 11 10 11 8 14 11 12 12 13 15 15
7 8 6 8 7 4 7 8 11 9 11 11 13 13 12 11 13 10 10 9 7 5 7 3 2 3 3 5 7 7 12 12 14 13 7 7 10 11 9 8 5 9 3 14
Wind_Direction
195 102 209 254 188 188 244 278 279 285 287 246 198 164 181 176 190 185 180 187 202 200 207 174 159 162 160 163 157 157 151 169 141 133 141 137 153 152 187 187 165 157 159 149
356 219 229 236 216 239 260 256 276 287 298 103 125 170 171 180 192 182 174 175 201 202 210 185 167 168 165 166 167 163 168 162 163 150 162 147 142 201 175 182 166 167 152 162
176 238 230 237 250 236 252 220 257 252 69 42 106 81 128 183 186 184 189 189 192 204 203 192 177 171 170 169 170 170 171 166 168 165 131 85 73 61 60 195 197 193 171 177
202 245 223 230 248 194 267 224 252 274 80 266 178 157 178 170 172 193 211 201 198 218 204 202 177 172 177 176 171 168 167 168 171 168 158 156 169 159 203 189 186 188 177 177
258 241 216 221 231 200 239 252 232 275 85 99 341 87 283 143 201 207 202 215 206 205 197 199 177 178 179 174 172 171 168 168 173 184 183 185 183 182 185 183 187 188 188 184
231 238 191 212 242 226 233 247 27 48 81 58 209 136 239 188 218 198 204 212 201 205 203 198 183 177 177 176 175 170 170 174 167 184 190 189 199 199 167 187 196 194 195 188
334 309 272 346 357 345 106 64 360 352 0 221 177 71 234 225 226 184 193 202 204 212 210 201 184 174 178 177 179 175 174 177 175 182 197 194 208 202 200 185 193 187 187 181
76 348 10 359 137 249 119 148 156 191 206 264 354 219 247 220 228 206 195 187 192 197 183 194 186 176 183 182 181 179 179 180 180 185 197 192 203 211 199 195 197 196 197 199
67 274 321 24 347 358 293 86 186 116 72 80 261 311 314 69 279 247 179 172 182 176 192 181 154 175 181 187 186 185 183 183 183 189 193 206 203 200 200 211 195 206 203 191
355 357 4 316 33 23 89 288 7 17 112 171 297 323 247 3 347 306 183 215 181 172 163 167 165 166 165 179 188 199 189 184 182 189 194 202 214 212 204 196 209 209 207 187
32 76 295 34 57 354 356 13 359 95 126 145 151 265 78 88 26 360 273 216 186 196 188 170 152 165 164 164 179 186 195 192 185 188 194 198 207 221 206 204 211 211 209 200
328 115 334 245 267 248 127 80 50 53 315 325 132 276 8 29 1 13 19 256 191 189 189 216 181 181 179 178 171 182 187 194 192 189 192 199 200 206 216 215 213 207 202 210
333 13 10 342 10 20 37 7 30 255 350 324 119 267 9 26 27 25 10 347 215 158 183 219 232 187 225 179 165 188 189 193 192 189 193 195 201 202 212 221 221 213 203 201
66 71 132 181 231 268 322 335 348 110 14 325 268 328 351 15 9 2 15 14 313 193 193 306 323 301 344 344 255 212 194 190 194 192 196 199 198 204 210 214 215 211 222 204
87 90 25 353 10 352 340 342 335 326 237 178 293 317 325 352 345 353 23 47 41 47 51 28 345 300 284 260 211 266 247 194 190 193 196 204 202 199 203 211 216 211 212 224
5 342 45 360 35 11 322 309 308 304 348 310 333 334 355 352 21 16 20 46 84 60 48 16 12 354 314 225 214 112 336 159 194 196 203 201 202 200 201 204 208 213 215 217
92 109 71 267 65 8 307 268 293 294 338 89 90 294 357 5 18 26 11 17 13 48 85 53 8 5 347 45 71 331 239 210 207 220 208 206 202 203 203 203 206 210 213 218
230 122 133 206 73 215 243 312 271 302 63 58 38 9 2 341 337 39 21 18 5 1 359 64 60 8 355 6 7 324 273 224 187 231 211 207 206 205 202 207 207 208 205 211
148 121 147 163 180 276 299 286 243 171 90 39 7 1 354 341 347 57 20 16 359 348 348 360 16 27 354 356 352 336 294 234 21 47 11 332 219 211 203 206 211 209 203 208
36 102 133 136 150 242 224 332 323 315 140 9 8 4 357 337 33 288 350 358 357 345 6 353 348 8 1 353 316 334 349 4 80 98 11 324 303 230 212 209 208 209 208 209
343 356 205 207 209 272 357 311 301 174 258 350 358 348 355 339 288 300 317 338 333 11 2 337 350 14 354 337 333 348 357 1 329 316 27 310 294 249 215 213 207 208 206 209
94 331 331 329 245 245 3 342 57 350 295 321 334 326 306 304 307 308 305 317 354 350 7 356 360 8 3 353 338 342 342 328 343 350 309 283 286 266 217 209 208 208 207 209
196 177 205 211 292 23 326 8 331 347 301 296 308 310 303 305 292 302 312 295 311 355 333 337 2 5 354 3 357 304 327 334 330 316 272 284 292 276 226 209 210 206 206 206
189 122 224 360 169 297 283 295 331 309 306 302 298 295 289 285 286 290 292 310 312 328 333 332 345 14 7 339 346 320 325 324 308 292 292 301 293 281 232 213 206 205 205 207
204 167 197 253 285 304 234 299 300 302 311 301 301 299 295 288 284 287 294 294 295 309 309 341 7 2 2 349 331 315 321 319 308 318 322 319 303 292 228 218 204 208 211 205
178 189 179 215 200 207 265 280 295 288 303 311 301 295 289 278 278 275 284 281 279 288 296 297 317 23 0 329 321 314 323 316 308 316 318 305 303 308 269 204 199 39 4 222